This demonstration page uses our WeatherBlox Daily Observations layout. Learn more.

Left ArrowRight Arrow

47.50024, -111.30081

Hourly Observations for October 23, 2019

Temp ( °F °C ) Dew Point ( °F °C ) Humidity (%) Winds ( mph kmh ) Pressure ( in mb ) Visibility ( mi km ) Precip ( " mm )
12:53 am 00:53 Cloudy 41 5 30 -1.1 65 65 NNW 5 7 30.07 1018 10 16 0.00 0.00
1:38 am 01:38 Cloudy with Light Rain 40 4.4 32 0 73 73 N 9 15 30.15 1021 10 16 0.00 0.00
1:53 am 01:53 Cloudy with Light Rain 39 3.9 33 0.6 79 79 N 8 13 30.11 1020 10 16 0.00 0.00
2:21 am 02:21 Cloudy with Light Rain 36 2.2 32 0 86 86 NNW 14 22 30.21 1023 6 10 0.03 0.76
2:51 am 02:51 Cloudy with Light Snow 34 1 30 -1 87 87 N 13 20 30.27 1025 4 6 0.06 1.52
2:53 am 02:53 Cloudy with Light Snow 33 0.6 30 -1.1 89 89 N 15 24 30.17 1022 3 5 0.07 1.78
3:53 am 03:53 Cloudy with Light Snow 34 1.1 31 -0.6 89 89 NW 15 24 30.21 1023 8 13 0.04 1.02
4:03 am 04:03 Cloudy with Light Wintry Mix 34 1.1 31 -0.6 89 89 NW 9 15 30.27 1025 9 14 0.00 0.00
4:12 am 04:12 Cloudy with Light Rain 34 1.1 31 -0.6 89 89 NNW 8 13 30.27 1025 10 16 0.00 0.00
4:27 am 04:27 Cloudy 34 1.1 31 -0.6 89 89 NW 9 15 30.27 1025 10 16 0.00 0.00
4:44 am 04:44 Cloudy 34 1.1 31 -0.6 89 89 WNW 7 11 30.27 1025 10 16 0.00 0.00
4:53 am 04:53 Cloudy 34 1.1 31 -0.6 89 89 WNW 7 11 30.26 1025 10 16 0.00 0.00
5:05 am 05:05 Cloudy with Light Rain 34 1.1 31 -0.6 89 89 WNW 8 13 30.27 1025 10 16 0.00 0.00
5:17 am 05:17 Cloudy 34 1.1 31 -0.6 89 89 WNW 8 13 30.27 1025 10 16 0.00 0.00
5:43 am 05:43 Cloudy 34 1.1 31 -0.6 89 89 W 8 13 30.30 1026 10 16 0.00 0.00
5:53 am 05:53 Cloudy 34 1.1 31 -0.6 89 89 W 7 11 30.28 1026 10 16 0.00 0.00
6:53 am 06:53 Cloudy 33 0.6 31 -0.6 92 92 SW 8 13 30.31 1027 10 16 0.00 0.00
7:27 am 07:27 Cloudy 34 1.1 31 -0.6 89 89 SW 8 13 30.33 1027 10 16 0.00 0.00
7:44 am 07:44 Cloudy with Light Snow 34 1.1 31 -0.6 89 89 WSW 7 11 30.33 1027 9 14 0.00 0.00
7:53 am 07:53 Cloudy with Light Snow 34 1.1 31 -0.6 89 89 W 9 15 30.33 1027 9 14 0.00 0.00
8:02 am 08:02 Cloudy with Light Snow 33 0.6 30 -1.1 89 89 WNW 7 11 30.33 1027 2 2 0.00 0.00
8:26 am 08:26 Cloudy with Light Snow 32 0 30 -1.1 92 92 NW 9 15 30.39 1029 3 4 0.02 0.51
8:32 am 08:32 Cloudy with Light Snow 32 0 30 -1.1 92 92 NNW 10 17 30.39 1029 3 5 0.02 0.51
8:53 am 08:53 Cloudy 33 0.6 30 -1.1 89 89 NNW 7 11 30.37 1028 9 14 0.02 0.51
9:53 am 09:53 Cloudy 33 0.6 29 -1.7 85 85 NNW 7 11 30.39 1029 10 16 0.00 0.00
10:53 am 10:53 Cloudy 34 1.1 29 -1.7 82 82 W 10 17 30.43 1031 10 16 0.00 0.00
11:50 am 11:50 Cloudy 36 2 28 -2 75 75 W 10 17 30.45 1031 10 16 0.00 0.00
11:53 am 11:53 Cloudy 35 1.7 29 -1.7 78 78 W 10 17 30.45 1031 10 16 0.00 0.00
12:14 pm 12:14 Cloudy 35 1.7 29 -1.7 78 78 W 12 19 30.45 1031 10 16 0.00 0.00
12:53 pm 12:53 Cloudy with Light Snow 35 1.7 28 -2.2 76 76 WNW 9 15 30.46 1032 8 13 0.00 0.00
1:50 pm 13:50 Cloudy with Light Snow 34 1 28 -2 81 81 W 14 22 30.48 1032 3 4 0.00 0.00
1:53 pm 13:53 Cloudy with Light Snow 35 1.7 30 -1.1 82 82 W 10 17 30.47 1032 3 5 0.00 0.00
2:09 pm 14:09 Cloudy with Light Snow 34 1.1 29 -1.7 82 82 W 12 19 30.50 1033 2 3 0.00 0.00
2:35 pm 14:35 Cloudy with Light Snow 34 1.1 30 -1.1 85 85 W 13 20 30.50 1033 6 10 0.00 0.00
2:53 pm 14:53 Cloudy 34 1.1 29 -1.7 82 82 W 10 17 30.50 1033 10 16 0.00 0.00
3:53 pm 15:53 Cloudy 34 1.1 28 -2.2 79 79 W 14 22 30.50 1033 10 16 0.00 0.00
4:53 pm 16:53 Cloudy 35 1.7 28 -2.2 76 76 WSW 9 15 30.51 1033 10 16 0.00 0.00
5:53 pm 17:53 Cloudy 35 1.7 28 -2.2 76 76 WSW 10 17 30.51 1033 10 16 0.00 0.00
6:53 pm 18:53 Cloudy 34 1.1 27 -2.8 76 76 SW 10 17 30.52 1033 10 16 0.00 0.00
7:53 pm 19:53 Partly Cloudy 32 0 26 -3.3 79 79 WSW 10 17 30.54 1034 10 16 0.00 0.00
8:53 pm 20:53 Cloudy 31 -0.6 26 -3.3 82 82 WSW 10 17 30.55 1035 10 16 0.00 0.00
9:53 pm 21:53 Cloudy 31 -0.6 26 -3.3 82 82 SW 8 13 30.54 1034 10 16 0.00 0.00
10:53 pm 22:53 Cloudy 31 -0.6 26 -3.3 82 82 SSW 7 11 30.53 1034 10 16 0.00 0.00
11:53 pm 23:53 Cloudy 31 -0.6 26 -3.3 82 82 SSW 9 15 30.53 1034 10 16 0.00 0.00

Powered by AerisWeather